Meteógrafos Informações Meteorológicas em tempo real
Aeroporto de Congonhas
13-08-2020 16:00

Temperatura atual: 29 graus 84 F    Umidade relativa: 30 %
Velocidade do vento: 07 nós 12 Km/h    Direção: 320 graus NW
Ajuste do altímetro ..: 1015 HPA
Visibilidade: Ótima    Tempo presente: Céu Limpo

Observação
Data Hora BRTTempo°CUmidadePressãoVentoVisib.
13/08 - 16:00   Céu Limpo 29° 30% 1015 Noroeste/12 km/h OK
13/08 - 15:55   Céu Limpo 29° 30% 1015 Noroeste/12 km/h OK
13/08 - 14:01   Céu Limpo 27° 39% 1016 Oeste-noroeste/5 km/h CAVO
13/08 - 13:55   Céu Limpo 27° 39% 1016 Oeste-noroeste/5 km/h CAVO
13/08 - 12:01   Quase sem nuvens 27° 42% 1017 /5 km/h 9000
13/08 - 11:56   Quase sem nuvens 25° 50% 1018 Sul-sudoeste/7 km/h 8000
13/08 - 11:00   Quase sem nuvens 25° 50% 1018 Sul-sudoeste/7 km/h 8000
13/08 - 10:55   Quase sem nuvens 25° 50% 1018 Sul-sudoeste/7 km/h 8000
13/08 - 09:01   Céu Limpo 21° 64% 1020 Sul/7 km/h CAVO
13/08 - 08:55   Céu Limpo 21° 64% 1020 Sul/7 km/h CAVO
13/08 - 05:55   Névoa úmida 16° 82% 1017 Sudeste/5 km/h 5000
13/08 - 04:01   Névoa úmida 16° 82% 1016 Sul/5 km/h 4500
13/08 - 03:55   Névoa úmida 16° 82% 1016 Sul/5 km/h 4500
12/08 - 23:00   Quase sem nuvens 17° 82% 1018 /1 km/h 7000
12/08 - 22:56   Quase sem nuvens 17° 82% 1018 /1 km/h 7000
12/08 - 19:00   Névoa úmida 17° 88% 1018 Sul-sudeste/12 km/h 5000
12/08 - 18:55   Névoa úmida 17° 88% 1018 Sul-sudeste/18 km/h 5000
12/08 - 18:00   Névoa úmida 17° 88% 1018 Sul-sudeste/18 km/h 5000
12/08 - 17:55   Névoa úmida 18° 82% 1018 Sul/19 km/h 5000
12/08 - 17:00   Quase sem nuvens 18° 82% 1017 Sul-sudeste/21 km/h 9000
12/08 - 16:55   Céu Limpo 27° 30% 1016 Noroeste/10 km/h CAVO
12/08 - 16:01   Céu Limpo 27° 30% 1016 Noroeste/10 km/h CAVO
12/08 - 15:55   Céu Limpo ND° ND% ND Noroeste/10 km/h CAVO
12/08 - 15:00   Céu Limpo 27° 30% 1016 Norte/16 km/h OK

Termo de Uso  |   Links Úteis  |   Imprensa  |  Anuncie  |  Fale Conosco  |  Versão Celular  |   Política de Privacidade

Apolo11.com - Todos os direitos reservados - 2000 - 2020

"Tirania não é um hábito; ela se desenvolve, como se desenvolvem as doenças" - Dostoievski -